CZ-6A DEB, 64661

Orbit data source: Space-Track

CZ-6A DEB, 64661 is space debris in LEO originally from a launch on Tue, 06 Aug 2024 UTC launched from the Taiyaun Space Center, China (TSC). Debris objects in space refer to the collection of defunct objects orbiting the Earth. Examples of debris include non-operational satellites, rocket bodies, and fragments generated from explosions, collisions, or faulty payload assembly.

Loading next visibility...
Identifier
64661, 2024-140AFB
Orbit
LEO
Country
Flag of CNCN / PRC
Related business
Manufacturer
SAST
Mission
Spacecraft
Bus & Motor
Unknown
Mass
Unknown
Launch date (UTC)
2024-08-06 (2 years ago)
Launch vehicle
Unknown
Launch site
Taiyaun Space Center, China (TSC)
Object type
Payload
Rocket body
Debris
Shape & HBR
Unknown shape, 0.1 m
Radar Cross Section
Small (<0.1 m²)

Expand to show TLE details & history
Last TLE update: 1 day ago

TLE from 1 day ago
0 CZ-6A DEB
1 64661U 24140AFB 26170.72083382  .00001222  00000-0  53031-3 0  9995
2 64661  88.9939 273.6222 0043008 153.3389 207.0027 14.23130350 85027
Epoch: 2026-06-19T17:18Z
TLE epoch observation values (Epoch: 2026-06-19T17:18:00.042Z)
Latitude
-0.00005°
Longitude
106.17627°
Altitude
845.439 km
Speed
7.416 km/s
True Right ascension
18h 14m 29s
True Declination
0° 00' 00"
Sunlit
Object was in full shadow at epoch
Visualization orbit readout
Latitude
Unknown
Longitude
Unknown
Altitude
Unknown
Speed
Unknown
Apparent Right ascension
Unknown
Apparent Declination
Unknown
Sunlit
N/A
Visualization observer readout
Local Sidereal Time
07:23:26
Azimuth
Unknown
Elevation
Unknown
Doppler factor
Unknown
Orbital elements
Apogee altitude
842.654 km
Perigee altitude
780.81 km
Semi-major axis
7,189.869 km
Eccentricity
0.0043
Inclination
88.9939°
RAAN
273.6222°
Arg. of periapsis
153.3389°
True anomaly
206.78°
Mean anomaly
207.0027°
Eccentric anomaly
206.89125°
Mean motion
3.5601 °/min
Orbital period
101.12 mins
BSTAR
0.00053031
Loading maneuver chart data...
Computing Atmospheric mass density...
Loading historical data...
Loading historical data...
Loading historical data...
Loading historical data...
Loading historical data...
Loading historical data...
Loading historical data...

Documentation

Showing up to 5 results
|